Location: Unspecified
(0.0000°N, 0.0000°E)
Time: 07:53:49
(UTC+00:00)

Tiangong 2 - Pass Details

Date: 13 January 2017
Orbit: 368 x 380 km, 42.8° (Epoch: 21 January)

Event Time Altitude Azimuth Distance (km) Brightness Sun altitude
Rises 05:25:44 0° 215° (SW) 2,229 4.8 -10.0°
Reaches altitude 10° 05:27:51 10° 207° (SSW) 1,380 3.8 -9.5°
Maximum altitude 05:30:49 41° 135° (SE) 557 2.5 -8.8°
Drops below altitude 10° 05:33:47 10° 62° (ENE) 1,380 4.5 -8.1°
Sets 05:35:54 0° 55° (NE) 2,230 5.4 -7.6°
